Terug naar catalogus

BREEZE-M DEB

LostHEO
NORAD 48534·DEBRIS·🇷🇺 Russia

Gelanceerd Mar 14, 2008 vanaf Baikonur Cosmodrome

Loading…

Volgende Passages (komende 24 uur)

TLE

VerouderdSource: Space-Track

Epoch: Sep 3, 2025, 13:39 UTC

1 48534U 08011DZ  25246.56931494 -.00000117  00000-0 -30575-2 0  9997
2 48534  48.3723  62.6716 6426328 234.6130  47.6942  3.01428502114330

Volg BREEZE-M DEB in realtime met AllMySat

Download on the App Store